{"data":{"norad_id":59046,"epoch":"2026-05-25T04:07:12.154944Z","epoch_age_seconds":63519,"freshness":"FRESH","line1":"1 59046U 24038Z   26145.17166846  .00001115  00000+0  50044-4 0  9992","line2":"2 59046  43.0031 311.7668 0001304 281.3465  78.7240 15.27578732126493","mean_motion":15.27578732,"eccentricity":0.0001304,"inclination_deg":43.0031,"raan_deg":311.7668,"arg_perigee_deg":281.3465,"mean_anomaly_deg":78.724,"bstar":5.0044e-5,"rev_number":12649,"period_min":94.26682696182,"perigee_km":482.15819372841,"apogee_km":483.94759205247,"semimajor_km":6861.1898928904,"source":"CELESTRAK","updated_at":"2026-05-25T13:38:18.827188Z"}}